Location: Hilderbrand
(37.5756°N, 89.8540°W)
Time: 11:36:00
(UTC+00:00)

CBERS-1 - Pass Details

Date: 15 November 2025
Orbit: 765 x 772 km, 98.8° (Epoch: 05 December)

Event Time Altitude Azimuth Distance (km) Brightness Sun altitude
Rises 11:59:46 0° 11° (N) 3,253 7.2 -8.2°
Reaches altitude 10° 12:02:05 10° 10° (N) 2,321 6.4 -7.8°
Maximum altitude 12:07:11 77° 285° (WNW) 794 4.0 -6.8°
Drops below altitude 10° 12:12:15 10° 200° (SSW) 2,302 6.5 -5.9°
Sets 12:14:33 0° 199° (SSW) 3,223 7.2 -5.5°
